EW0036 Weather Reports


time (UTC)temp
C
wind
direction
speed
KPH
gust
KPH
rain 1hr
cm
rain 24hr
cm
rain mn
cm
humidity
%
barometer
mb
20260507051819 20 85 1.6 6.4 0.00 0.00 0.00 48 1012.9
20260507050818 19 220 1.6 6.4 0.00 0.00 0.00 49 1012.5
20260507045817 18 21 1.6 8.0 0.00 0.00 0.00 51 1012.5
20260507044811 18 65 1.6 8.0 0.00 0.00 0.00 52 1012.5
20260507043811 18 292 1.6 3.2 0.00 0.00 0.00 54 1012.5
20260507042810 17 286 3.2 3.2 0.00 0.00 0.00 54 1012.5
20260507041809 17 53 0.0 6.4 0.00 0.00 0.00 54 1012.5
20260507040705 17 103 3.2 8.0 0.00 0.00 0.00 55 1012.5
20260507035705 17 264 3.2 8.0 0.00 0.00 0.00 55 1012.5
20260507034704 17 86 1.6 4.8 0.00 0.00 0.00 55 1012.5
20260507033703 18 110 1.6 3.2 0.00 0.00 0.00 54 1012.2
20260507032702 18 139 1.6 3.2 0.00 0.00 0.00 53 1012.2
20260507031630 18 230 1.6 3.2 0.00 0.00 0.00 52 1012.2
20260507030629 18 53 1.6 6.4 0.00 0.00 0.00 52 1011.9
20260507025628 17 102 1.6 6.4 0.00 0.00 0.00 52 1011.9
20260507024627 17 270 1.6 6.4 0.00 0.00 0.00 52 1011.9
20260507023626 18 166 0.0 6.4 0.00 0.00 0.00 52 1011.9
20260507022625 18 85 3.2 6.4 0.00 0.00 0.00 52 1011.5
20260507021624 18 255 1.6 6.4 0.00 0.00 0.00 52 1011.5
20260507020623 18 215 1.6 6.4 0.00 0.00 0.00 52 1011.9
20260507015622 17 257 1.6 6.4 0.00 0.00 0.00 52 1011.5
20260507014621 18 184 3.2 4.8 0.00 0.00 0.00 52 1011.5
20260507013620 17 265 1.6 1.6 0.00 0.00 0.00 52 1011.5
20260507012548 17 198 1.6 3.2 0.00 0.00 0.00 52 1011.5
20260507011547 18 302 3.2 6.4 0.00 0.00 0.00 52 1011.5
20260507010546 18 344 3.2 8.0 0.00 0.00 0.00 51 1011.5
20260507005545 18 300 1.6 6.4 0.00 0.00 0.00 50 1011.5
20260507004544 18 350 1.6 6.4 0.00 0.00 0.00 50 1011.2
20260507003543 18 221 0.0 6.4 0.00 0.00 0.00 49 1011.2
20260507002511 18 261 3.2 8.0 0.00 0.00 0.00 48 1011.2
20260507001510 18 51 0.0 8.0 0.00 0.00 0.00 48 1011.2
20260507000509 18 158 3.2 3.2 0.00 0.00 0.00 48 1011.2
20260506235437 18 201 0.0 3.2 0.00 0.00 0.00 47 1010.8
20260506234435 18 4 0.0 3.2 0.00 0.00 0.00 47 1010.8
20260506233435 18 279 1.6 3.2 0.00 0.00 0.00 47 1010.8
20260506232403 17 340 1.6 1.6 0.00 0.00 0.00 49 1010.8
20260506231300 17 165 0.0 0.0 0.00 0.00 0.00 50 1010.5
20260506230259 16 165 0.0 0.0 0.00 0.00 0.00 50 1010.5
20260506225258 16 86 0.0 0.0 0.00 0.00 0.00 50 1010.5
20260506224257 16 104 0.0 0.0 0.00 0.00 0.00 51 1010.5
20260506223256 17 104 0.0 0.0 0.00 0.00 0.00 50 1010.5
20260506222224 17 104 0.0 0.0 0.00 0.00 0.00 49 1010.5
20260506221223 17 104 0.0 0.0 0.00 0.00 0.00 47 1010.5
20260506220222 18 77 0.0 0.0 0.00 0.00 0.00 45 1010.2
20260506215220 18 77 0.0 0.0 0.00 0.00 0.00 43 1010.2
20260506214219 18 77 0.0 0.0 0.00 0.00 0.00 42 1010.2
20260506213218 18 77 0.0 0.0 0.00 0.00 0.00 42 1010.2
20260506212217 18 77 0.0 0.0 0.00 0.00 0.00 42 1010.2
20260506211144 18 76 0.0 0.0 0.00 0.00 0.00 42 1010.2
20260506210143 18 77 0.0 0.0 0.00 0.00 0.00 42 1009.8
20260506205142 18 77 0.0 0.0 0.00 0.00 0.00 42 1009.8
20260506204141 18 163 0.0 0.0 0.00 0.00 0.00 42 1009.8
20260506203140 18 163 0.0 0.0 0.00 0.00 0.00 42 1009.8
20260506202139 18 162 0.0 0.0 0.00 0.00 0.00 42 1009.8
20260506201138 18 162 0.0 0.0 0.00 0.00 0.00 41 1009.8
20260506200137 19 162 0.0 0.0 0.00 0.00 0.00 40 1009.8
20260506195136 20 162 0.0 0.0 0.00 0.00 0.00 39 1009.8
20260506194135 20 162 0.0 1.6 0.00 0.00 0.00 38 1009.8
20260506193135 21 162 0.0 1.6 0.00 0.00 0.00 37 1009.8
20260506192133 21 153 0.0 0.0 0.00 0.00 0.00 36 1009.8
20260506191132 21 150 0.0 0.0 0.00 0.00 0.00 36 1009.8
20260506190131 21 149 0.0 1.6 0.00 0.00 0.00 36 1009.8
20260506185059 22 150 0.0 1.6 0.00 0.00 0.00 35 1009.5
20260506184058 22 173 1.6 1.6 0.00 0.00 0.00 35 1009.5
20260506183058 22 136 0.0 1.6 0.00 0.00 0.00 35 1009.5
20260506182057 22 151 0.0 1.6 0.00 0.00 0.00 34 1009.1
20260506181056 22 195 0.0 0.0 0.00 0.00 0.00 34 1009.1
20260506180046 23 176 0.0 1.6 0.00 0.00 0.00 33 1009.1
20260506175013 23 257 1.6 1.6 0.00 0.00 0.00 33 1009.1
20260506173910 23 240 1.6 1.6 0.00 0.00 0.00 31 1009.1
20260506172909 24 200 0.0 1.6 0.00 0.00 0.00 31 1008.8
20260506171908 25 176 0.0 9.7 0.00 0.00 0.00 30 1008.8
20260506170907 25 133 0.0 9.7 0.00 0.00 0.00 30 1008.8
20260506165804 25 148 0.0 3.2 0.00 0.00 0.00 29 1008.5
20260506164803 26 192 1.6 3.2 0.00 0.00 0.00 29 1008.5
20260506163801 26 252 1.6 4.8 0.00 0.00 0.00 28 1008.5
20260506162800 27 223 1.6 4.8 0.00 0.00 0.00 27 1008.5
20260506161727 27 212 1.6 4.8 0.00 0.00 0.00 26 1008.5
20260506160725 28 276 0.0 6.4 0.00 0.00 0.00 25 1008.5
20260506155724 29 154 3.2 6.4 0.00 0.00 0.00 25 1008.5
20260506154723 30 139 3.2 6.4 0.00 0.00 0.00 24 1008.5
20260506153721 30 207 1.6 9.7 0.00 0.00 0.00 23 1008.5
20260506152720 31 184 3.2 6.4 0.00 0.00 0.00 22 1008.5
20260506151649 30 103 1.6 6.4 0.00 0.00 0.00 23 1008.5
20260506150648 31 280 1.6 9.7 0.00 0.00 0.00 22 1008.5
20260506145647 31 120 1.6 9.7 0.00 0.00 0.00 22 1008.5
20260506144646 31 262 3.2 8.0 0.00 0.00 0.00 21 1008.5
20260506143645 31 233 3.2 9.7 0.00 0.00 0.00 23 1008.5
20260506142644 32 198 3.2 9.7 0.00 0.00 0.00 21 1008.5
20260506141632 32 221 3.2 11.3 0.00 0.00 0.00 23 1008.5
20260506140630 31 186 1.6 11.3 0.00 0.00 0.00 23 1008.5
20260506135629 31 170 1.6 6.4 0.00 0.00 0.00 22 1008.5
20260506134628 31 207 1.6 6.4 0.00 0.00 0.00 23 1008.5
20260506133625 31 110 3.2 6.4 0.00 0.00 0.00 22 1008.5
20260506132624 31 213 3.2 16.1 0.00 0.00 0.00 22 1008.5
20260506131623 31 171 3.2 16.1 0.00 0.00 0.00 22 1008.8
20260506130621 31 217 3.2 8.0 0.00 0.00 0.00 22 1008.8
20260506125620 31 274 0.0 8.0 0.00 0.00 0.00 22 1008.8
20260506124619 31 184 1.6 6.4 0.00 0.00 0.00 22 1008.8
20260506123618 31 333 3.2 9.7 0.00 0.00 0.00 20 1008.8
20260506121421 32 274 1.6 6.4 0.00 0.00 0.00 20 1009.1
20260506120420 31 160 1.6 4.8 0.00 0.00 0.00 21 1009.1
20260506115418 31 286 1.6 8.0 0.00 0.00 0.00 22 1009.1
20260506114417 31 193 1.6 8.0 0.00 0.00 0.00 21 1009.5
20260506113319 31 223 3.2 8.0 0.00 0.00 0.00 20 1009.5
20260506112316 31 205 1.6 4.8 0.00 0.00 0.00 23 1009.5
20260506111315 31 125 1.6 3.2 0.00 0.00 0.00 22 1009.5
20260506110310 31 287 1.6 4.8 0.00 0.00 0.00 21 1009.8
20260506105308 31 311 3.2 4.8 0.00 0.00 0.00 22 1009.8
20260506104305 31 188 3.2 6.4 0.00 0.00 0.00 24 1009.8
20260506103304 31 198 1.6 4.8 0.00 0.00 0.00 23 1009.8
20260506102245 31 128 1.6 4.8 0.00 0.00 0.00 23 1009.8
20260506101245 31 267 1.6 4.8 0.00 0.00 0.00 24 1009.8
20260506100244 30 18 1.6 3.2 0.00 0.00 0.00 26 1009.8
20260506095243 30 268 1.6 8.0 0.00 0.00 0.00 27 1009.8
20260506093216 30 80 1.6 6.4 0.00 0.00 0.00 29 1010.2
20260506092214 30 226 1.6 4.8 0.00 0.00 0.00 30 1010.2
20260506091213 30 106 1.6 3.2 0.00 0.00 0.00 28 1010.2
20260506090212 29 201 1.6 3.2 0.00 0.00 0.00 31 1010.2
20260506085211 30 195 1.6 3.2 0.00 0.00 0.00 29 1010.2
20260506084210 29 214 0.0 3.2 0.00 0.00 0.00 29 1010.2
20260506083209 28 259 1.6 3.2 0.00 0.00 0.00 30 1010.2
20260506082137 28 287 1.6 3.2 0.00 0.00 0.00 34 1010.2
20260506081104 28 215 1.6 3.2 0.00 0.00 0.00 33 1010.2
20260506073035 26 142 1.6 3.2 0.00 0.00 0.00 35 1010.2
20260506072034 26 313 1.6 3.2 0.00 0.00 0.00 35 1010.2
20260506071033 25 88 1.6 3.2 0.00 0.00 0.00 36 1010.2
20260506061919 23 109 1.6 3.2 0.00 0.00 0.00 38 1010.2
20260506060913 23 139 0.0 1.6 0.00 0.00 0.00 40 1010.2